Location: Asheville, NC
(35.6000°N, 82.5500°W)
Time: 11:43:36
(UTC-04:00)

CUTE-I - Pass Details

Date: 16 February 2018
Orbit: 810 x 826 km, 98.7° (Epoch: 23 May)

Event Time Altitude Azimuth Distance (km) Brightness Sun altitude
Rises 06:00:17 0° 26° (NNE) 3,358 ? -16.0°
Reaches altitude 10° 06:03:00 10° 39° (NE) 2,423 ? -15.4°
Maximum altitude 06:07:30 27° 96° (E) 1,530 ? -14.5°
Drops below altitude 10° 06:12:00 10° 153° (SSE) 2,416 ? -13.6°
Sets 06:14:40 0° 166° (SSE) 3,345 ? -13.1°
